Date String (YYYY-MM-DD hh:mm:ss) UTC,Instrument flags,Ambient pressure (hPa),Sample flow (lpm),Bypass flow (lpm),Sample temperature (°C),Ambient temperature (°C),ASC tube jacket temperature (°C),LED temperature (°C),Box temperature (°C),Sample RH (%),Span deviation,Mass concentration (μg/m³),Mass concentration (μg/m³),Mass concentration (μg/m³)
DateTimeUTC,F1_M11,P_M11,Q1_M11,Q2_M11,T1_M11,T2_M11,T3_M11,T4_M11,T5_M11,U1_M11,ZSPAN_M11,X0_M11,X2_M11,X1_M11
2021-10-07 10:00:00,,0827.1,5.00,0.00,30.2,29.3,00.0,39.3,32.0,16.7,0000.0,0007.69,0002.50,0001.68
2021-10-07 10:01:00,,0827.2,4.99,0.00,30.2,29.4,00.0,39.3,32.0,16.7,0000.0,0006.57,0002.48,0001.67
2021-10-07 10:02:00,,0827.2,5.01,0.00,30.2,29.4,00.0,39.3,32.0,16.7,0000.0,0006.14,0002.46,0001.67
2021-10-07 10:03:00,,0827.2,5.01,0.00,30.2,29.4,00.0,39.3,32.0,16.7,0000.0,0006.23,0002.45,0001.66
2021-10-07 10:04:00,,0827.2,5.00,0.00,30.3,29.4,00.0,39.4,32.1,16.7,0000.0,0006.30,0002.45,0001.66
2021-10-07 10:05:00,,0827.2,4.99,0.00,30.2,29.4,00.0,39.4,32.0,16.7,0000.0,0007.13,0002.44,0001.66
2021-10-07 10:06:00,,0827.2,5.00,0.00,30.3,29.4,00.0,39.4,32.0,16.7,0000.0,0008.08,0002.43,0001.65
2021-10-07 10:07:00,,0827.2,5.00,0.00,30.3,29.4,00.0,39.4,32.0,16.7,0000.0,0008.51,0002.44,0001.66
2021-10-07 10:08:00,,0827.2,4.99,0.00,30.3,29.4,00.0,39.4,32.0,16.7,0000.0,0008.48,0002.48,0001.66
2021-10-07 10:09:00,,0827.2,5.00,0.00,30.3,29.4,00.0,39.4,32.0,16.6,0000.0,0009.74,0002.52,0001.68
2021-10-07 10:10:00,,0827.2,4.99,0.00,30.3,29.4,00.0,39.4,32.0,16.6,0000.0,0009.65,0002.49,0001.69
2021-10-07 10:11:00,,0827.2,5.01,0.00,30.3,29.5,00.0,39.4,32.0,16.6,0000.0,0009.58,0002.47,0001.69
2021-10-07 10:12:00,,0827.2,4.99,0.00,30.3,29.5,00.0,39.4,32.0,16.6,0000.0,0009.27,0002.50,0001.70
2021-10-07 10:13:00,,0827.2,5.01,0.00,30.3,29.5,00.0,39.4,32.0,16.6,0000.0,0009.06,0002.52,0001.70
2021-10-07 10:14:00,,0827.2,4.99,0.00,30.3,29.5,00.0,39.4,32.0,16.6,0000.0,0009.14,0002.56,0001.71
2021-10-07 10:15:00,,0827.2,5.01,0.00,30.3,29.5,00.0,39.4,32.1,16.6,0000.0,0009.32,0002.56,0001.72
2021-10-07 10:16:00,,0827.2,5.00,0.00,30.3,29.5,00.0,39.4,32.1,16.6,0000.0,0009.88,0002.62,0001.72
2021-10-07 10:17:00,,0827.2,5.00,0.00,30.3,29.5,00.0,39.4,32.1,16.6,0000.0,0009.38,0002.67,0001.72
2021-10-07 10:18:00,,0827.2,5.00,0.00,30.3,29.5,00.0,39.4,32.1,16.6,0000.0,0009.17,0002.71,0001.73
2021-10-07 10:19:00,,0827.2,4.99,0.00,30.3,29.5,00.0,39.4,32.1,16.6,0000.0,0009.71,0002.72,0001.76
2021-10-07 10:20:00,,0827.2,5.00,0.00,30.4,29.5,00.0,39.5,32.1,16.6,0000.0,0008.70,0002.71,0001.76
2021-10-07 10:21:00,,0827.2,4.99,0.00,30.4,29.5,00.0,39.5,32.1,16.6,0000.0,0009.42,0002.68,0001.76
2021-10-07 10:22:00,,0827.2,5.01,0.00,30.4,29.5,00.0,39.5,32.1,16.6,0000.0,0009.53,0002.73,0001.77
2021-10-07 10:23:00,,0827.2,5.01,0.00,30.4,29.5,00.0,39.5,32.1,16.6,0000.0,0009.52,0002.75,0001.78
2021-10-07 10:24:00,,0827.2,4.99,0.00,30.4,29.5,00.0,39.5,32.1,16.6,0000.0,0009.46,0002.73,0001.78
2021-10-07 10:25:00,,0827.2,4.99,0.00,30.3,29.5,00.0,39.5,32.1,16.7,0000.0,0009.64,0002.74,0001.79
2021-10-07 10:26:00,,0827.2,5.01,0.00,30.3,29.4,00.0,39.5,32.1,16.6,0000.0,0010.11,0002.79,0001.81
2021-10-07 10:27:00,,0827.2,4.99,0.00,30.4,29.4,00.0,39.5,32.1,16.6,0000.0,0009.32,0002.77,0001.81
2021-10-07 10:28:00,,0827.3,5.00,0.00,30.4,29.4,00.0,39.5,32.1,16.6,0000.0,0009.05,0002.79,0001.81
2021-10-07 10:29:00,,0827.3,5.01,0.00,30.4,29.4,00.0,39.5,32.1,16.6,0000.0,0008.83,0002.80,0001.80
2021-10-07 10:30:00,,0827.3,5.00,0.00,30.4,29.4,00.0,39.5,32.1,16.6,0000.0,0008.33,0002.78,0001.79
2021-10-07 10:31:00,,0827.4,4.98,0.00,30.3,29.4,00.0,39.5,32.1,16.6,0000.0,0008.28,0002.75,0001.80
2021-10-07 10:32:00,,0827.4,5.00,0.00,30.3,29.4,00.0,39.5,32.1,16.6,0000.0,0008.11,0002.77,0001.81
2021-10-07 10:33:00,,0827.4,5.01,0.00,30.3,29.4,00.0,39.5,32.1,16.6,0000.0,0007.93,0002.78,0001.81
2021-10-07 10:34:00,,0827.4,5.00,0.00,30.3,29.4,00.0,39.4,32.1,16.7,0000.0,0007.97,0002.74,0001.80
2021-10-07 10:35:00,,0827.3,5.00,0.00,30.3,29.4,00.0,39.4,32.1,16.7,0000.0,0007.91,0002.71,0001.80
2021-10-07 10:36:00,,0827.3,5.00,0.00,30.3,29.4,00.0,39.4,32.0,16.7,0000.0,0007.39,0002.62,0001.80
2021-10-07 10:37:00,,0827.3,5.00,0.00,30.3,29.4,00.0,39.4,32.0,16.8,0000.0,0006.70,0002.62,0001.78
2021-10-07 10:38:00,,0827.3,5.01,0.00,30.3,29.4,00.0,39.4,32.0,16.8,0000.0,0006.86,0002.64,0001.80
2021-10-07 10:39:00,,0827.4,4.99,0.00,30.3,29.4,00.0,39.4,32.0,16.8,0000.0,0006.87,0002.60,0001.79
2021-10-07 10:40:00,,0827.4,5.01,0.00,30.3,29.4,00.0,39.4,32.0,16.8,0000.0,0006.91,0002.60,0001.81
2021-10-07 10:41:00,,0827.4,5.00,0.00,30.3,29.4,00.0,39.4,32.0,16.8,0000.0,0007.21,0002.58,0001.81
2021-10-07 10:42:00,,0827.3,4.99,0.00,30.2,29.3,00.0,39.4,32.0,16.9,0000.0,0006.83,0002.59,0001.80
2021-10-07 10:43:00,,0827.4,5.00,0.00,30.2,27.7,00.0,39.4,31.5,16.9,0000.0,0005.67,0002.55,0001.77
2021-10-07 10:44:00,,0827.4,5.01,0.00,30.0,26.2,00.0,39.3,31.1,17.0,0000.0,0005.83,0002.52,0001.77
2021-10-07 10:45:00,,0827.3,4.99,0.00,29.9,26.3,00.0,39.2,31.1,17.1,0000.0,0007.05,0002.52,0001.78
2021-10-07 10:46:00,,0827.3,5.00,0.00,29.8,26.7,00.0,39.1,31.1,17.3,0000.0,0007.53,0002.48,0001.78
2021-10-07 10:47:00,,0827.3,5.01,0.00,29.7,27.1,00.0,39.1,31.2,17.3,0000.0,0007.73,0002.53,0001.77
2021-10-07 10:48:00,,0827.2,5.00,0.00,29.7,27.5,00.0,39.1,31.2,17.3,0000.0,0007.66,0002.48,0001.76
2021-10-07 10:49:00,,0827.3,5.00,0.00,29.7,27.8,00.0,39.0,31.3,17.3,0000.0,0007.47,0002.39,0001.73
2021-10-07 10:50:00,,0827.2,5.00,0.00,29.7,28.0,00.0,39.0,31.3,17.3,0000.0,0007.46,0002.36,0001.73
2021-10-07 10:51:00,,0827.2,5.00,0.00,29.7,28.2,00.0,39.0,31.4,17.3,0000.0,0007.36,0002.36,0001.72
2021-10-07 10:52:00,,0827.2,5.00,0.00,29.7,28.3,00.0,39.0,31.4,17.3,0000.0,0006.86,0002.37,0001.71
2021-10-07 10:53:00,,0827.2,4.99,0.00,29.7,28.4,00.0,39.0,31.5,17.2,0000.0,0006.89,0002.38,0001.72
2021-10-07 10:54:00,,0827.5,5.00,0.00,29.8,28.5,00.0,39.0,31.5,17.2,0000.0,0006.96,0002.42,0001.74
2021-10-07 10:55:00,,0827.2,5.01,0.00,29.8,28.6,00.0,39.0,31.5,17.2,0000.0,0006.86,0002.40,0001.73
2021-10-07 10:56:00,,0827.3,4.99,0.00,29.8,28.7,00.0,39.0,31.5,17.2,0000.0,0005.73,0002.42,0001.73
2021-10-07 10:57:00,,0827.3,5.00,0.00,29.8,28.7,00.0,39.0,31.5,17.1,0000.0,0005.52,0002.45,0001.73
2021-10-07 10:58:00,,0827.4,4.98,0.00,29.8,28.8,00.0,39.0,31.6,17.1,0000.0,0005.70,0002.44,0001.72
2021-10-07 10:59:00,,0827.4,5.00,0.00,29.8,28.8,00.0,39.0,31.6,17.1,0000.0,0005.68,0002.44,0001.72
